This is the latest recevied weather packets stored in our database for station/object K5OBH. If no packets are shown the sender has not sent any weather packets the latest 10 day(s).
| Time | Temp. | Humidity | Pressure | Rain* | Wind** | Luminosity | Snow |
|---|---|---|---|---|---|---|---|
| 1777555297 | 11.67° C | 76% | 1017.6 hPa | 0 mm | - | 96 W/m² | - |
| 1777554992 | 11.67° C | 77% | 1017.2 hPa | 0 mm | - | 88 W/m² | - |
| 1777554690 | 11.67° C | 77% | 1017.3 hPa | 0 mm | - | 82 W/m² | - |
| 1777554386 | 11.67° C | 78% | 1017.2 hPa | 0 mm | - | 75 W/m² | - |
| 1777554083 | 11.67° C | 78% | 1017.3 hPa | 0 mm | - | 63 W/m² | - |
| 1777553780 | 11.67° C | 78% | 1017.3 hPa | 0 mm | - | 59 W/m² | - |
| 1777553477 | 11.67° C | 78% | 1017.3 hPa | 0 mm | - | 53 W/m² | - |
| 1777553172 | 11.67° C | 78% | 1017.1 hPa | 0 mm | - | 45 W/m² | - |
| 1777552868 | 11.11° C | 78% | 1017.1 hPa | 0 mm | - | 41 W/m² | - |
| 1777552563 | 11.11° C | 79% | 1017.1 hPa | 0 mm | - | 45 W/m² | - |
| 1777552260 | 11.11° C | 79% | 1016.7 hPa | 0 mm | - | 27 W/m² | - |
| 1777551957 | 11.11° C | 79% | 1016.6 hPa | 0 mm | - | 22 W/m² | - |
| 1777551655 | 11.11° C | 78% | 1016.6 hPa | 0 mm | - | 19 W/m² | - |
| 1777551352 | 11.11° C | 78% | 1016.8 hPa | 0 mm | - | 17 W/m² | - |
| 1777551048 | 11.11° C | 78% | 1016.7 hPa | 0 mm | - | 13 W/m² | - |
| 1777550745 | 11.11° C | 77% | 1016.9 hPa | 0 mm | - | 6 W/m² | - |
| 1777550441 | 11.11° C | 78% | 1016.7 hPa | 0 mm | - | 6 W/m² | - |
| 1777550138 | 11.11° C | 78% | 1016.8 hPa | 0 mm | - | 3 W/m² | - |
| 1777549834 | 11.11° C | 79% | 1016.6 hPa | 0 mm | - | 3 W/m² | - |
| 1777549531 | 11.11° C | 78% | 1016.4 hPa | 0 mm | - | 2 W/m² | - |
| 1777549227 | 11.11° C | 78% | 1016.7 hPa | 0 mm | - | 1 W/m² | - |
| 1777548923 | 11.11° C | 79% | 1016.6 hPa | 0 mm | - | 1 W/m² | - |
| 1777548620 | 11.11° C | 80% | 1016.7 hPa | 0 mm | - | 0 W/m² | - |
| 1777548317 | 11.11° C | 79% | 1016.6 hPa | 0 mm | - | 0 W/m² | - |
| 1777548015 | 11.11° C | 79% | 1016.4 hPa | 0 mm | - | 0 W/m² | - |
* Rain latest hour (hover to see other rain measurements)
** Current wind speed in m/s (hover to see current wind gust speed)